Erie, PA

11:42 AM EST on December 12, 2019 (GMT -0500)
Erie International

Weather History for KERI - August, 2019

Change the Weather History Date:

Wednesday, August 21, 2019

  Actual Average Record
Temperature  
Mean Temperature 76 °F 70 °F  
Max Temperature 82 °F 78 °F 92 °F (1916)
Min Temperature 69 °F 62 °F 47 °F (2000)
Degree Days  
Heating Degree Days 0 0  
Month to date heating degree days 0 0  
Since 1 June heating degree days 38 68  
Since 1 July heating degree days 0 7  
Cooling Degree Days 11 6  
Month to date cooling degree days 186 134  
Year to date cooling degree days 651 509  
Since 1 June cooling degree days 618 470  
Growing Degree Days 26 (Base 50)    
Moisture  
Dew Point 68 °F    
Average Humidity 80    
Maximum Humidity 90    
Minimum Humidity 65    
Precipitation  
Precipitation 0.81 in 0.11 in 1.84 in (1977)
Month to date precipitation 3.37 2.38  
Year to date precipitation 25.87 24.74  
Snow  
Snow 0.00 in 0.00 in - ()
Month to date snowfall 0.0 0.0  
Since 1 June snowfall 0.0 0.0  
Since 1 July snowfall 0.0 0.0  
Snow Depth 0.00 in    
Sea Level Pressure  
Sea Level Pressure 29.91 in    
Wind  
Wind Speed 6 mph ()    
Max Wind Speed 15 mph    
Max Gust Speed 22 mph    
Visibility 7.9 miles    
Events Rain , Thunderstorm    
T = Trace of Precipitation, MM = Missing Value Source: Averaged Metar Reports

Daily Weather History Graph

Daily Weather History Graph

Search for Another Location

Airport or City:

Astronomy

Aug. 21, 2019 Rise Set
Actual Time 6:34 AM EDT 8:12 PM EDT
Civil Twilight 6:04 AM EDT 8:42 PM EDT
Nautical Twilight 5:28 AM EDT 9:17 PM EDT
Astronomical Twilight 4:50 AM EDT 9:55 PM EDT
Moon 11:23 PM EDT (8/21) 12:14 PM EDT (8/21)
Length of Visible Light 14h 37m
Length of Day
13h 38m
Waning Gibbous, 69% of the Moon is Illuminated
Aug 21
Waning Gibbous
Aug 23
Last Quarter
Aug 30
New
Sep 5
First Quarter
Sep 14
Full

Hourly Weather History & Observations

Time (EDT) Temp. Heat Index Dew Point Humidity Pressure Visibility Wind Dir Wind Speed Gust Speed Precip Events Conditions
12:37 AM 75.0 °F - 69.1 °F 82% 29.96 in 10.0 mi Calm Calm - N/A   Scattered Clouds
12:51 AM 75.0 °F - 69.1 °F 82% 29.96 in 10.0 mi South 5.8 mph - N/A   Mostly Cloudy
1:05 AM 75.0 °F - 69.1 °F 82% 29.96 in 10.0 mi West 3.5 mph - N/A   Scattered Clouds
1:51 AM 75.0 °F - 66.9 °F 76% 29.92 in 10.0 mi South 4.6 mph - N/A   Clear
2:43 AM 73.0 °F - 66.9 °F 81% 29.95 in 5.0 mi SSW 12.7 mph - 0.02 in Rain , Thunderstorm Light Rain
2:51 AM 72.0 °F - 66.9 °F 84% 29.93 in 3.0 mi South 10.4 mph - 0.04 in Rain Heavy Rain
3:30 AM 69.1 °F - 64.9 °F 87% 29.94 in 6.0 mi SSE 5.8 mph - 0.06 in Rain , Thunderstorm Light Rain
3:51 AM 69.1 °F - 64.9 °F 87% 29.93 in 3.0 mi South 6.9 mph - 0.12 in Rain , Thunderstorm Rain
4:21 AM 69.1 °F - 64.9 °F 87% 29.94 in 5.0 mi South 5.8 mph - 0.07 in Rain Rain
4:43 AM 69.1 °F - 64.9 °F 87% 29.94 in 5.0 mi Variable 3.5 mph - 0.13 in Rain , Thunderstorm Light Rain
4:51 AM 69.1 °F - 66.0 °F 90% 29.94 in 3.0 mi NW 9.2 mph - 0.16 in Rain , Thunderstorm Heavy Rain
4:53 AM 69.1 °F - 66.0 °F 90% 29.94 in 1.8 mi Variable 5.8 mph - 0.03 in Rain , Thunderstorm Heavy Rain
5:00 AM 69.1 °F - 66.0 °F 90% 29.94 in 1.2 mi Calm Calm - 0.22 in Rain , Thunderstorm Heavy Rain
5:04 AM 69.1 °F - 66.0 °F 90% 29.93 in 2.5 mi South 6.9 mph - 0.23 in Rain , Thunderstorm Rain
5:07 AM 69.1 °F - 66.0 °F 90% 29.93 in 3.0 mi SSE 6.9 mph - 0.24 in Rain Rain
5:51 AM 69.1 °F - 66.0 °F 90% 29.90 in 10.0 mi SSE 6.9 mph - 0.38 in Rain Light Rain
6:51 AM 70.0 °F - 66.0 °F 87% 29.89 in 10.0 mi South 8.1 mph - 0.00 in   Clear
7:51 AM 71.1 °F - 66.9 °F 87% 29.91 in 10.0 mi South 5.8 mph - N/A   Clear
8:51 AM 73.9 °F - 68.0 °F 82% 29.89 in 10.0 mi SSW 9.2 mph - N/A   Clear
9:51 AM 77.0 °F - 69.1 °F 76% 29.89 in 10.0 mi South 9.2 mph - N/A   Clear
10:51 AM 79.0 °F - 69.1 °F 72% 29.88 in 10.0 mi SW 11.5 mph - N/A   Partly Cloudy
11:20 AM 80.1 °F 82.7 °F 68.0 °F 67% 29.90 in 10.0 mi WSW 9.2 mph - N/A   Mostly Cloudy
11:51 AM 81.0 °F 83.8 °F 68.0 °F 65% 29.90 in 10.0 mi SSW 8.1 mph - N/A   Mostly Cloudy
12:19 PM 81.0 °F 84.1 °F 69.1 °F 67% 29.92 in 10.0 mi WNW 11.5 mph - N/A   Mostly Cloudy
12:51 PM 82.0 °F 85.9 °F 70.0 °F 67% 29.90 in 10.0 mi WNW 11.5 mph - N/A   Partly Cloudy
1:51 PM 80.1 °F 83.6 °F 71.1 °F 74% 29.90 in 10.0 mi West 12.7 mph 20.7 mph N/A   Clear
2:24 PM 81.0 °F 84.9 °F 71.1 °F 72% 29.91 in 10.0 mi WNW 13.8 mph - N/A   Mostly Cloudy
2:51 PM 80.1 °F 82.9 °F 69.1 °F 69% 29.90 in 10.0 mi West 10.4 mph - N/A   Mostly Cloudy
3:51 PM 79.0 °F - 70.0 °F 74% 29.90 in 10.0 mi West 10.4 mph - N/A   Overcast
4:32 PM 81.0 °F 84.4 °F 70.0 °F 69% 29.90 in 10.0 mi WSW 9.2 mph - N/A   Scattered Clouds
4:51 PM 81.0 °F 84.1 °F 69.1 °F 67% 29.88 in 10.0 mi West 10.4 mph - N/A   Partly Cloudy
5:24 PM 79.0 °F - 70.0 °F 74% 29.91 in 10.0 mi West 11.5 mph - N/A   Mostly Cloudy
5:51 PM 79.0 °F - 70.0 °F 74% 29.89 in 10.0 mi WSW 9.2 mph - N/A   Scattered Clouds
6:51 PM 78.1 °F - 70.0 °F 76% 29.88 in 10.0 mi West 9.2 mph - N/A   Mostly Cloudy
6:59 PM 78.1 °F - 70.0 °F 76% 29.89 in 10.0 mi WSW 11.5 mph - N/A   Scattered Clouds
7:51 PM 77.0 °F - 70.0 °F 79% 29.87 in 10.0 mi SW 6.9 mph - N/A   Clear
8:51 PM 75.0 °F - 69.1 °F 82% 29.88 in 10.0 mi South 5.8 mph - N/A   Partly Cloudy
9:51 PM 75.0 °F - 68.0 °F 79% 29.90 in 10.0 mi NW 12.7 mph 21.9 mph N/A   Mostly Cloudy
10:22 PM 73.0 °F - 68.0 °F 84% 29.90 in 1.8 mi Variable 3.5 mph - 0.11 in Rain Heavy Rain
10:27 PM 72.0 °F - 66.9 °F 84% 29.91 in 3.0 mi South 3.5 mph - 0.11 in Rain Light Rain
10:51 PM 72.0 °F - 68.0 °F 87% 29.88 in 10.0 mi SSE 6.9 mph - 0.11 in   Mostly Cloudy
11:51 PM 72.0 °F - 66.9 °F 84% 29.88 in 10.0 mi South 5.8 mph - N/A   Mostly Cloudy